Time,TemperatureF,DewpointF,PressureIn,WindDirection,WindDirectionDegrees,WindSpeedMPH,WindSpeedGustMPH,Humidity,HourlyPrecipIn,Conditions,Clouds,dailyrainin,SoftwareType,DateUTC
2013-05-13 00:22:00,51.0,50.0,30.04,SSW,210,6.0,-999.0,96,-99.99,,,-99.99,,2013-05-13 07:22:00,
2013-05-13 00:32:00,51.0,50.0,30.04,SSW,210,6.0,-999.0,96,-99.99,,,-99.99,,2013-05-13 07:32:00,
2013-05-13 00:42:00,51.0,50.0,30.04,SSW,210,6.0,-999.0,96,-99.99,,,-99.99,,2013-05-13 07:42:00,
2013-05-13 00:52:00,51.0,50.0,30.04,SSW,210,6.0,-999.0,96,-99.99,,,-99.99,,2013-05-13 07:52:00,
2013-05-13 01:01:00,51.0,50.0,30.04,SSW,210,6.0,-999.0,96,-99.99,,,-99.99,,2013-05-13 08:01:00,
2013-05-13 02:21:00,50.0,49.0,30.03,SW,219,10.0,-999.0,96,-99.99,,,-99.99,,2013-05-13 09:21:00,
2013-05-13 02:33:00,50.0,49.0,30.03,SW,219,10.0,-999.0,96,-99.99,,,-99.99,,2013-05-13 09:33:00,
2013-05-13 02:42:00,50.0,49.0,30.03,SW,219,10.0,-999.0,96,-99.99,,,-99.99,,2013-05-13 09:42:00,
2013-05-13 02:52:00,50.0,49.0,30.03,SW,219,10.0,-999.0,96,-99.99,,,-99.99,,2013-05-13 09:52:00,
2013-05-13 03:02:00,50.0,49.0,30.03,SW,219,10.0,-999.0,96,-99.99,,,-99.99,,2013-05-13 10:02:00,
2013-05-13 04:22:00,51.0,50.0,30.03,WSW,254,7.0,-999.0,96,-99.99,,,-99.99,,2013-05-13 11:22:00,
2013-05-13 04:32:00,51.0,50.0,30.03,WSW,254,7.0,-999.0,96,-99.99,,,-99.99,,2013-05-13 11:32:00,
2013-05-13 04:42:00,51.0,50.0,30.03,WSW,254,7.0,-999.0,96,-99.99,,,-99.99,,2013-05-13 11:42:00,
2013-05-13 04:52:00,51.0,50.0,30.03,WSW,254,7.0,-999.0,96,-99.99,,,-99.99,,2013-05-13 11:52:00,
2013-05-13 05:01:00,51.0,50.0,30.03,WSW,254,7.0,-999.0,96,-99.99,,,-99.99,,2013-05-13 12:01:00,
2013-05-13 06:21:00,51.0,50.0,30.04,SW,222,6.0,-999.0,96,-99.99,,,-99.99,,2013-05-13 13:21:00,
2013-05-13 06:32:00,51.0,50.0,30.04,SW,222,6.0,-999.0,96,-99.99,,,-99.99,,2013-05-13 13:32:00,
2013-05-13 06:42:00,51.0,50.0,30.04,SW,222,6.0,-999.0,96,-99.99,,,-99.99,,2013-05-13 13:42:00,
2013-05-13 06:52:00,51.0,50.0,30.04,SW,222,6.0,-999.0,96,-99.99,,,-99.99,,2013-05-13 13:52:00,
2013-05-13 07:01:00,51.0,50.0,30.04,SW,222,6.0,-999.0,96,-99.99,,,-99.99,,2013-05-13 14:01:00,
2013-05-13 08:22:00,51.0,50.0,30.07,SW,222,7.0,-999.0,96,-99.99,,,-99.99,,2013-05-13 15:22:00,
2013-05-13 08:32:00,51.0,50.0,30.07,SW,222,7.0,-999.0,96,-99.99,,,-99.99,,2013-05-13 15:32:00,
2013-05-13 08:42:00,51.0,50.0,30.07,SW,222,7.0,-999.0,96,-99.99,,,-99.99,,2013-05-13 15:42:00,
2013-05-13 08:53:00,51.0,50.0,30.07,SW,222,7.0,-999.0,96,-99.99,,,-99.99,,2013-05-13 15:53:00,
2013-05-13 09:03:00,51.0,50.0,30.07,SW,222,7.0,-999.0,96,-99.99,,,-99.99,,2013-05-13 16:03:00,
2013-05-13 10:21:00,52.0,51.0,30.09,SW,221,12.0,-999.0,97,-99.99,,,-99.99,,2013-05-13 17:21:00,
2013-05-13 10:32:00,52.0,51.0,30.09,SW,221,12.0,-999.0,97,-99.99,,,-99.99,,2013-05-13 17:32:00,
2013-05-13 10:42:00,52.0,51.0,30.09,SW,221,12.0,-999.0,97,-99.99,,,-99.99,,2013-05-13 17:42:00,
2013-05-13 10:54:00,52.0,51.0,30.09,SW,221,12.0,-999.0,97,-99.99,,,-99.99,,2013-05-13 17:54:00,
2013-05-13 11:03:00,52.0,51.0,30.09,SW,221,12.0,-999.0,97,-99.99,,,-99.99,,2013-05-13 18:03:00,
2013-05-13 12:22:00,55.0,54.0,30.09,WSW,251,9.0,-999.0,96,-99.99,,,-99.99,,2013-05-13 19:22:00,
2013-05-13 12:32:00,55.0,54.0,30.09,WSW,251,9.0,-999.0,96,-99.99,,,-99.99,,2013-05-13 19:32:00,
2013-05-13 12:44:00,55.0,54.0,30.09,WSW,251,9.0,-999.0,96,-99.99,,,-99.99,,2013-05-13 19:44:00,
2013-05-13 12:53:00,55.0,54.0,30.09,WSW,251,9.0,-999.0,96,-99.99,,,-99.99,,2013-05-13 19:53:00,
2013-05-13 13:01:00,55.0,54.0,30.09,WSW,251,9.0,-999.0,96,-99.99,,,-99.99,,2013-05-13 20:01:00,
2013-05-13 14:23:00,56.0,53.0,30.06,SW,232,13.0,-999.0,91,-99.99,,,-99.99,,2013-05-13 21:23:00,
2013-05-13 14:33:00,56.0,53.0,30.06,SW,232,13.0,-999.0,91,-99.99,,,-99.99,,2013-05-13 21:33:00,
2013-05-13 14:43:00,56.0,53.0,30.06,SW,232,13.0,-999.0,91,-99.99,,,-99.99,,2013-05-13 21:43:00,
2013-05-13 14:53:00,56.0,53.0,30.06,SW,232,13.0,-999.0,91,-99.99,,,-99.99,,2013-05-13 21:53:00,
2013-05-13 15:02:00,56.0,53.0,30.06,SW,232,13.0,-999.0,91,-99.99,,,-99.99,,2013-05-13 22:02:00,
2013-05-13 16:23:00,57.0,53.0,30.01,SW,230,12.0,-999.0,88,-99.99,,,-99.99,,2013-05-13 23:23:00,
2013-05-13 16:34:00,57.0,53.0,30.01,SW,230,12.0,-999.0,88,-99.99,,,-99.99,,2013-05-13 23:34:00,
2013-05-13 16:42:00,57.0,53.0,30.01,SW,230,12.0,-999.0,88,-99.99,,,-99.99,,2013-05-13 23:42:00,
2013-05-13 16:54:00,57.0,53.0,30.01,SW,230,12.0,-999.0,88,-99.99,,,-99.99,,2013-05-13 23:54:00,
2013-05-13 17:02:00,57.0,53.0,30.01,SW,230,12.0,-999.0,88,-99.99,,,-99.99,,2013-05-14 00:02:00,
2013-05-13 18:21:00,56.0,52.0,29.98,SW,235,23.0,-999.0,87,-99.99,,,-99.99,,2013-05-14 01:21:00,
2013-05-13 18:32:00,56.0,52.0,29.98,SW,235,23.0,-999.0,87,-99.99,,,-99.99,,2013-05-14 01:32:00,
2013-05-13 18:43:00,56.0,52.0,29.98,SW,235,23.0,-999.0,87,-99.99,,,-99.99,,2013-05-14 01:43:00,
2013-05-13 18:53:00,56.0,52.0,29.98,SW,235,23.0,-999.0,87,-99.99,,,-99.99,,2013-05-14 01:53:00,
2013-05-13 19:01:00,56.0,52.0,29.98,SW,235,23.0,-999.0,87,-99.99,,,-99.99,,2013-05-14 02:01:00,
2013-05-13 20:21:00,55.0,51.0,29.95,WSW,249,18.0,-999.0,85,-99.99,,,-99.99,,2013-05-14 03:21:00,
2013-05-13 20:33:00,55.0,51.0,29.95,WSW,249,18.0,-999.0,85,-99.99,,,-99.99,,2013-05-14 03:33:00,
2013-05-13 20:42:00,55.0,51.0,29.95,WSW,249,18.0,-999.0,85,-99.99,,,-99.99,,2013-05-14 03:42:00,
2013-05-13 20:53:00,55.0,51.0,29.95,WSW,249,18.0,-999.0,85,-99.99,,,-99.99,,2013-05-14 03:53:00,
2013-05-13 21:02:00,55.0,51.0,29.95,WSW,249,18.0,-999.0,85,-99.99,,,-99.99,,2013-05-14 04:02:00,
2013-05-13 22:22:00,53.0,50.0,29.97,SSW,198,4.0,-999.0,91,-99.99,,,-99.99,,2013-05-14 05:22:00,
2013-05-13 22:32:00,53.0,50.0,29.97,SSW,198,4.0,-999.0,91,-99.99,,,-99.99,,2013-05-14 05:32:00,
2013-05-13 22:42:00,53.0,50.0,29.97,SSW,198,4.0,-999.0,91,-99.99,,,-99.99,,2013-05-14 05:42:00,
2013-05-13 22:52:00,53.0,50.0,29.97,SSW,198,4.0,-999.0,91,-99.99,,,-99.99,,2013-05-14 05:52:00,
2013-05-13 23:01:00,53.0,50.0,29.97,SSW,198,4.0,-999.0,91,-99.99,,,-99.99,,2013-05-14 06:01:00,